iso_date,Year,Hour,Min,DOY,POS_DOY,Lat,Lon,BP,Ts,Ta,has_bp,has_ts,has_ta,BuoyID,Buoy_Type,Buoy_Owner,Logistics,Hemisphere
2014-04-07T19:04:48Z,2014,19,5,97.795,94.951,89.2554,13.6306,1024.0,-22.7,-999.0,yes,yes,no,300234061361220,IceBall,USIABP,NPEO,North
2014-04-07T19:59:31Z,2014,20,0,97.833,94.989,89.2554,13.6306,1024.0,-25.4,-999.0,yes,yes,no,300234061361220,IceBall,USIABP,NPEO,North
2014-04-07T21:00:00Z,2014,21,0,97.875,97.875,89.253,13.617,1024.2,-25.5,-999.0,yes,yes,no,300234061361220,IceBall,USIABP,NPEO,North
2014-04-07T22:00:28Z,2014,22,0,97.917,97.875,89.253,13.617,1024.4,-24.9,-999.0,yes,yes,no,300234061361220,IceBall,USIABP,NPEO,North
2014-04-07T22:59:31Z,2014,23,0,97.958,97.875,89.253,13.617,1024.5,-24.9,-999.0,yes,yes,no,300234061361220,IceBall,USIABP,NPEO,North
2014-04-08T00:00:00Z,2014,0,0,98.0,98.0,89.249,13.5346,1024.4,-23.7,-999.0,yes,yes,no,300234061361220,IceBall,USIABP,NPEO,North
2014-04-08T01:00:28Z,2014,1,0,98.042,98.0,89.249,13.5346,1024.1,-24.1,-999.0,yes,yes,no,300234061361220,IceBall,USIABP,NPEO,North
2014-04-08T01:59:31Z,2014,2,0,98.083,98.0,89.249,13.5346,1024.1,-23.7,-999.0,yes,yes,no,300234061361220,IceBall,USIABP,NPEO,North
2014-04-08T03:00:00Z,2014,3,0,98.125,98.125,89.2458,13.4372,1023.7,-23.5,-999.0,yes,yes,no,300234061361220,IceBall,USIABP,NPEO,North
2014-04-08T04:00:28Z,2014,4,0,98.167,98.125,89.2458,13.4372,1023.5,-23.7,-999.0,yes,yes,no,300234061361220,IceBall,USIABP,NPEO,North
2014-04-08T04:59:31Z,2014,5,0,98.208,98.125,89.2458,13.4372,1022.9,-23.1,-999.0,yes,yes,no,300234061361220,IceBall,USIABP,NPEO,North
2014-04-08T06:00:00Z,2014,6,0,98.25,98.25,89.2432,13.4412,1022.7,-22.8,-999.0,yes,yes,no,300234061361220,IceBall,USIABP,NPEO,North
2014-04-08T07:00:28Z,2014,7,0,98.292,98.25,89.2432,13.4412,1022.5,-22.7,-999.0,yes,yes,no,300234061361220,IceBall,USIABP,NPEO,North
2014-04-08T07:59:31Z,2014,8,0,98.333,98.25,89.2432,13.4412,1022.3,-22.7,-999.0,yes,yes,no,300234061361220,IceBall,USIABP,NPEO,North
2014-04-08T09:00:00Z,2014,9,0,98.375,98.375,89.2406,13.417,1022.0,-23.3,-999.0,yes,yes,no,300234061361220,IceBall,USIABP,NPEO,North
2014-04-08T10:00:28Z,2014,10,0,98.417,98.375,89.2406,13.417,1021.9,-22.7,-999.0,yes,yes,no,300234061361220,IceBall,USIABP,NPEO,North
2014-04-08T10:59:31Z,2014,11,0,98.458,98.375,89.2406,13.417,1021.6,-22.9,-999.0,yes,yes,no,300234061361220,IceBall,USIABP,NPEO,North
2014-04-08T12:00:00Z,2014,12,0,98.5,98.5,89.2382,13.3672,1021.2,-22.8,-999.0,yes,yes,no,300234061361220,IceBall,USIABP,NPEO,North
2014-04-08T13:00:28Z,2014,13,0,98.542,98.5,89.2382,13.3672,1020.6,-22.6,-999.0,yes,yes,no,300234061361220,IceBall,USIABP,NPEO,North
2014-04-08T13:59:31Z,2014,14,0,98.583,98.5,89.2382,13.3672,1019.9,-23.0,-999.0,yes,yes,no,300234061361220,IceBall,USIABP,NPEO,North
2014-04-08T15:00:00Z,2014,15,0,98.625,98.625,89.2362,13.2876,1019.7,-22.6,-999.0,yes,yes,no,300234061361220,IceBall,USIABP,NPEO,North
2014-04-08T16:00:28Z,2014,16,0,98.667,98.625,89.2362,13.2876,1019.1,-22.5,-999.0,yes,yes,no,300234061361220,IceBall,USIABP,NPEO,North
2014-04-08T16:59:31Z,2014,17,0,98.708,98.625,89.2362,13.2876,1018.8,-22.3,-999.0,yes,yes,no,300234061361220,IceBall,USIABP,NPEO,North
2014-04-08T18:00:00Z,2014,18,0,98.75,98.75,89.2344,13.24,1018.1,-22.6,-999.0,yes,yes,no,300234061361220,IceBall,USIABP,NPEO,North
2014-04-08T19:00:28Z,2014,19,0,98.792,98.75,89.2344,13.24,1017.6,-24.1,-999.0,yes,yes,no,300234061361220,IceBall,USIABP,NPEO,North
2014-04-08T19:59:31Z,2014,20,0,98.833,98.75,89.2344,13.24,1017.2,-25.4,-999.0,yes,yes,no,300234061361220,IceBall,USIABP,NPEO,North
2014-04-08T21:00:00Z,2014,21,0,98.875,98.875,89.2318,13.2056,1016.8,-25.6,-999.0,yes,yes,no,300234061361220,IceBall,USIABP,NPEO,North
2014-04-08T22:00:28Z,2014,22,0,98.917,98.875,89.2318,13.2056,1016.6,-26.0,-999.0,yes,yes,no,300234061361220,IceBall,USIABP,NPEO,North
2014-04-08T22:59:31Z,2014,23,0,98.958,98.875,89.2318,13.2056,1016.3,-25.1,-999.0,yes,yes,no,300234061361220,IceBall,USIABP,NPEO,North
2014-04-09T00:00:00Z,2014,0,0,99.0,99.0,89.2282,13.1364,1016.1,-25.2,-999.0,yes,yes,no,300234061361220,IceBall,USIABP,NPEO,North
2014-04-09T01:00:28Z,2014,1,0,99.042,99.0,89.2282,13.1364,1015.6,-24.6,-999.0,yes,yes,no,300234061361220,IceBall,USIABP,NPEO,North
2014-04-09T01:59:31Z,2014,2,0,99.083,99.0,89.2282,13.1364,1015.2,-23.8,-999.0,yes,yes,no,300234061361220,IceBall,USIABP,NPEO,North
2014-04-09T03:00:00Z,2014,3,0,99.125,99.125,89.2246,13.0258,1014.9,-23.1,-999.0,yes,yes,no,300234061361220,IceBall,USIABP,NPEO,North
2014-04-09T04:00:28Z,2014,4,0,99.167,99.125,89.2246,13.0258,1014.4,-23.3,-999.0,yes,yes,no,300234061361220,IceBall,USIABP,NPEO,North
2014-04-09T04:59:31Z,2014,5,0,99.208,99.125,89.2246,13.0258,1014.1,-24.5,-999.0,yes,yes,no,300234061361220,IceBall,USIABP,NPEO,North
2014-04-09T06:00:00Z,2014,6,0,99.25,99.25,89.2214,12.9548,1014.0,-25.0,-999.0,yes,yes,no,300234061361220,IceBall,USIABP,NPEO,North
2014-04-09T07:00:28Z,2014,7,0,99.292,99.25,89.2214,12.9548,1014.1,-24.5,-999.0,yes,yes,no,300234061361220,IceBall,USIABP,NPEO,North
2014-04-09T07:59:31Z,2014,8,0,99.333,99.25,89.2214,12.9548,1014.1,-24.6,-999.0,yes,yes,no,300234061361220,IceBall,USIABP,NPEO,North
2014-04-09T09:00:00Z,2014,9,0,99.375,99.375,89.2178,12.9034,1014.2,-24.7,-999.0,yes,yes,no,300234061361220,IceBall,USIABP,NPEO,North
2014-04-09T10:00:28Z,2014,10,0,99.417,99.375,89.2178,12.9034,1014.4,-24.6,-999.0,yes,yes,no,300234061361220,IceBall,USIABP,NPEO,North
2014-04-09T10:59:31Z,2014,11,0,99.458,99.375,89.2178,12.9034,1014.6,-25.1,-999.0,yes,yes,no,300234061361220,IceBall,USIABP,NPEO,North
2014-04-09T12:00:00Z,2014,12,0,99.5,99.5,89.2132,12.8166,1014.6,-23.9,-999.0,yes,yes,no,300234061361220,IceBall,USIABP,NPEO,North
2014-04-09T13:00:28Z,2014,13,0,99.542,99.5,89.2132,12.8166,1014.6,-24.0,-999.0,yes,yes,no,300234061361220,IceBall,USIABP,NPEO,North
2014-04-09T13:59:31Z,2014,14,0,99.583,99.5,89.2132,12.8166,1014.5,-24.2,-999.0,yes,yes,no,300234061361220,IceBall,USIABP,NPEO,North
2014-04-09T15:00:00Z,2014,15,0,99.625,99.625,89.208,12.6572,1014.6,-25.4,-999.0,yes,yes,no,300234061361220,IceBall,USIABP,NPEO,North
2014-04-09T16:00:28Z,2014,16,0,99.667,99.625,89.208,12.6572,1014.7,-25.1,-999.0,yes,yes,no,300234061361220,IceBall,USIABP,NPEO,North
2014-04-09T16:59:31Z,2014,17,0,99.708,99.625,89.208,12.6572,1014.6,-25.3,-999.0,yes,yes,no,300234061361220,IceBall,USIABP,NPEO,North
2014-04-09T18:00:00Z,2014,18,0,99.75,99.75,89.2024,12.506,1014.8,-25.0,-999.0,yes,yes,no,300234061361220,IceBall,USIABP,NPEO,North
2014-04-09T19:00:28Z,2014,19,0,99.792,99.75,89.2024,12.506,1014.9,-25.2,-999.0,yes,yes,no,300234061361220,IceBall,USIABP,NPEO,North
2014-04-09T19:59:31Z,2014,20,0,99.833,99.75,89.2024,12.506,1015.1,-25.5,-999.0,yes,yes,no,300234061361220,IceBall,USIABP,NPEO,North
2014-04-09T21:00:00Z,2014,21,0,99.875,99.875,89.1956,12.4162,1015.5,-25.9,-999.0,yes,yes,no,300234061361220,IceBall,USIABP,NPEO,North
2014-04-09T22:00:28Z,2014,22,0,99.917,99.875,89.1956,12.4162,1015.7,-26.0,-999.0,yes,yes,no,300234061361220,IceBall,USIABP,NPEO,North
2014-04-09T22:59:31Z,2014,23,0,99.958,99.875,89.1956,12.4162,1015.7,-26.0,-999.0,yes,yes,no,300234061361220,IceBall,USIABP,NPEO,North
2014-04-10T00:00:00Z,2014,0,0,100.0,100.0,89.187,12.3218,1015.8,-24.8,-999.0,yes,yes,no,300234061361220,IceBall,USIABP,NPEO,North
2014-04-10T01:00:28Z,2014,1,0,100.042,100.0,89.187,12.3218,1015.8,-24.4,-999.0,yes,yes,no,300234061361220,IceBall,USIABP,NPEO,North
2014-04-10T01:59:31Z,2014,2,0,100.083,100.0,89.187,12.3218,1015.8,-23.8,-999.0,yes,yes,no,300234061361220,IceBall,USIABP,NPEO,North
2014-04-10T03:00:00Z,2014,3,0,100.125,100.125,89.1788,12.1962,1015.6,-24.4,-999.0,yes,yes,no,300234061361220,IceBall,USIABP,NPEO,North
2014-04-10T04:00:28Z,2014,4,0,100.167,100.125,89.1788,12.1962,1015.5,-22.2,-999.0,yes,yes,no,300234061361220,IceBall,USIABP,NPEO,North
2014-04-10T04:59:31Z,2014,5,0,100.208,100.125,89.1788,12.1962,1015.2,-22.4,-999.0,yes,yes,no,300234061361220,IceBall,USIABP,NPEO,North
2014-04-10T06:00:00Z,2014,6,0,100.25,100.25,89.171,12.0784,1015.1,-22.9,-999.0,yes,yes,no,300234061361220,IceBall,USIABP,NPEO,North
2014-04-10T07:00:28Z,2014,7,0,100.292,100.25,89.171,12.0784,1015.0,-22.9,-999.0,yes,yes,no,300234061361220,IceBall,USIABP,NPEO,North
2014-04-10T07:59:31Z,2014,8,0,100.333,100.25,89.171,12.0784,1014.9,-22.5,-999.0,yes,yes,no,300234061361220,IceBall,USIABP,NPEO,North
2014-04-10T09:00:00Z,2014,9,0,100.375,100.375,89.1624,11.9996,1014.8,-23.0,-999.0,yes,yes,no,300234061361220,IceBall,USIABP,NPEO,North
2014-04-10T10:00:28Z,2014,10,0,100.417,100.375,89.1624,11.9996,1014.4,-22.9,-999.0,yes,yes,no,300234061361220,IceBall,USIABP,NPEO,North
2014-04-10T10:59:31Z,2014,11,0,100.458,100.375,89.1624,11.9996,1014.2,-24.7,-999.0,yes,yes,no,300234061361220,IceBall,USIABP,NPEO,North
2014-04-10T12:00:00Z,2014,12,0,100.5,100.5,89.1536,11.9506,1013.7,-24.7,-999.0,yes,yes,no,300234061361220,IceBall,USIABP,NPEO,North
2014-04-10T13:00:28Z,2014,13,0,100.542,100.5,89.1536,11.9506,1013.4,-24.6,-999.0,yes,yes,no,300234061361220,IceBall,USIABP,NPEO,North
2014-04-10T13:59:31Z,2014,14,0,100.583,100.5,89.1536,11.9506,1013.0,-24.8,-999.0,yes,yes,no,300234061361220,IceBall,USIABP,NPEO,North
2014-04-10T15:00:00Z,2014,15,0,100.625,100.625,89.1456,11.8758,1012.6,-25.3,-999.0,yes,yes,no,300234061361220,IceBall,USIABP,NPEO,North
2014-04-10T16:00:28Z,2014,16,0,100.667,100.625,89.1456,11.8758,1011.9,-25.3,-999.0,yes,yes,no,300234061361220,IceBall,USIABP,NPEO,North
2014-04-10T16:59:31Z,2014,17,0,100.708,100.625,89.1456,11.8758,1011.2,-25.3,-999.0,yes,yes,no,300234061361220,IceBall,USIABP,NPEO,North
2014-04-10T18:00:00Z,2014,18,0,100.75,100.75,89.1382,11.828,1010.6,-25.5,-999.0,yes,yes,no,300234061361220,IceBall,USIABP,NPEO,North
2014-04-10T19:00:28Z,2014,19,0,100.792,100.75,89.1382,11.828,1010.0,-25.5,-999.0,yes,yes,no,300234061361220,IceBall,USIABP,NPEO,North
2014-04-11T00:00:00Z,2014,0,0,101.0,101.0,89.1224,11.8406,1007.3,-25.1,-999.0,yes,yes,no,300234061361220,IceBall,USIABP,NPEO,North
2014-04-11T01:00:28Z,2014,1,0,101.042,101.0,89.1224,11.8406,1006.6,-25.2,-999.0,yes,yes,no,300234061361220,IceBall,USIABP,NPEO,North
2014-04-11T01:59:31Z,2014,2,0,101.083,101.0,89.1224,11.8406,1005.9,-24.0,-999.0,yes,yes,no,300234061361220,IceBall,USIABP,NPEO,North
2014-04-11T03:00:00Z,2014,3,0,101.125,101.125,89.1156,11.8154,1005.3,-24.1,-999.0,yes,yes,no,300234061361220,IceBall,USIABP,NPEO,North
2014-04-11T04:00:28Z,2014,4,0,101.167,101.125,89.1156,11.8154,1004.7,-24.6,-999.0,yes,yes,no,300234061361220,IceBall,USIABP,NPEO,North
2014-04-11T04:59:31Z,2014,5,0,101.208,101.125,89.1156,11.8154,1004.0,-24.0,-999.0,yes,yes,no,300234061361220,IceBall,USIABP,NPEO,North
2014-04-11T06:00:00Z,2014,6,0,101.25,101.25,89.1096,11.809,1003.4,-23.4,-999.0,yes,yes,no,300234061361220,IceBall,USIABP,NPEO,North
2014-04-11T07:00:28Z,2014,7,0,101.292,101.25,89.1096,11.809,1003.1,-23.1,-999.0,yes,yes,no,300234061361220,IceBall,USIABP,NPEO,North
2014-04-11T07:59:31Z,2014,8,0,101.333,101.25,89.1096,11.809,1002.7,-21.6,-999.0,yes,yes,no,300234061361220,IceBall,USIABP,NPEO,North
2014-04-11T09:00:00Z,2014,9,0,101.375,101.375,89.103,11.807,1002.4,-23.5,-999.0,yes,yes,no,300234061361220,IceBall,USIABP,NPEO,North
2014-04-11T10:00:28Z,2014,10,0,101.417,101.375,89.103,11.807,1002.2,-23.8,-999.0,yes,yes,no,300234061361220,IceBall,USIABP,NPEO,North
2014-04-11T10:59:31Z,2014,11,0,101.458,101.375,89.103,11.807,1001.9,-22.0,-999.0,yes,yes,no,300234061361220,IceBall,USIABP,NPEO,North
2014-04-11T12:00:00Z,2014,12,0,101.5,101.5,89.096,11.7784,1001.5,-16.5,-999.0,yes,yes,no,300234061361220,IceBall,USIABP,NPEO,North
2014-04-11T13:00:28Z,2014,13,0,101.542,101.5,89.096,11.7784,1001.0,-17.4,-999.0,yes,yes,no,300234061361220,IceBall,USIABP,NPEO,North
2014-04-11T13:59:31Z,2014,14,0,101.583,101.5,89.096,11.7784,1000.5,-22.1,-999.0,yes,yes,no,300234061361220,IceBall,USIABP,NPEO,North
2014-04-11T15:00:00Z,2014,15,0,101.625,101.625,89.0896,11.7654,1000.5,-23.8,-999.0,yes,yes,no,300234061361220,IceBall,USIABP,NPEO,North
2014-04-11T16:00:28Z,2014,16,0,101.667,101.625,89.0896,11.7654,1000.3,-24.8,-999.0,yes,yes,no,300234061361220,IceBall,USIABP,NPEO,North
2014-04-11T16:59:31Z,2014,17,0,101.708,101.625,89.0896,11.7654,1000.0,-26.1,-999.0,yes,yes,no,300234061361220,IceBall,USIABP,NPEO,North
2014-04-11T18:00:00Z,2014,18,0,101.75,101.75,89.0834,11.7906,999.7,-26.7,-999.0,yes,yes,no,300234061361220,IceBall,USIABP,NPEO,North
2014-04-11T19:00:28Z,2014,19,0,101.792,101.75,89.0834,11.7906,999.6,-26.8,-999.0,yes,yes,no,300234061361220,IceBall,USIABP,NPEO,North
2014-04-11T19:59:31Z,2014,20,0,101.833,101.75,89.0834,11.7906,999.8,-27.5,-999.0,yes,yes,no,300234061361220,IceBall,USIABP,NPEO,North
2014-04-11T21:00:00Z,2014,21,0,101.875,101.875,89.0758,11.8292,999.8,-27.6,-999.0,yes,yes,no,300234061361220,IceBall,USIABP,NPEO,North
2014-04-11T22:00:28Z,2014,22,0,101.917,101.875,89.0758,11.8292,999.8,-27.9,-999.0,yes,yes,no,300234061361220,IceBall,USIABP,NPEO,North
2014-04-11T22:59:31Z,2014,23,0,101.958,101.875,89.0758,11.8292,999.6,-27.5,-999.0,yes,yes,no,300234061361220,IceBall,USIABP,NPEO,North
2014-04-12T00:00:00Z,2014,0,0,102.0,102.0,89.0672,11.8782,999.5,-27.7,-999.0,yes,yes,no,300234061361220,IceBall,USIABP,NPEO,North
2014-04-12T01:00:28Z,2014,1,0,102.042,102.0,89.0672,11.8782,999.2,-27.9,-999.0,yes,yes,no,300234061361220,IceBall,USIABP,NPEO,North
2014-04-12T01:59:31Z,2014,2,0,102.083,102.0,89.0672,11.8782,999.1,-27.9,-999.0,yes,yes,no,300234061361220,IceBall,USIABP,NPEO,North
2014-04-12T03:00:00Z,2014,3,0,102.125,102.125,89.0584,11.9512,999.0,-27.5,-999.0,yes,yes,no,300234061361220,IceBall,USIABP,NPEO,North
2014-04-12T04:00:28Z,2014,4,0,102.167,102.125,89.0584,11.9512,998.7,-26.9,-999.0,yes,yes,no,300234061361220,IceBall,USIABP,NPEO,North
2014-04-12T04:59:31Z,2014,5,0,102.208,102.125,89.0584,11.9512,998.3,-26.6,-999.0,yes,yes,no,300234061361220,IceBall,USIABP,NPEO,North
2014-04-12T06:00:00Z,2014,6,0,102.25,102.25,89.0494,12.0732,998.2,-26.4,-999.0,yes,yes,no,300234061361220,IceBall,USIABP,NPEO,North
2014-04-12T07:00:28Z,2014,7,0,102.292,102.25,89.0494,12.0732,998.0,-26.5,-999.0,yes,yes,no,300234061361220,IceBall,USIABP,NPEO,North
2014-04-12T07:59:31Z,2014,8,0,102.333,102.25,89.0494,12.0732,997.8,-27.4,-999.0,yes,yes,no,300234061361220,IceBall,USIABP,NPEO,North
2014-04-12T09:00:00Z,2014,9,0,102.375,102.375,89.0384,12.248,997.7,-26.8,-999.0,yes,yes,no,300234061361220,IceBall,USIABP,NPEO,North
2014-04-12T10:00:28Z,2014,10,0,102.417,102.375,89.0384,12.248,997.6,-26.7,-999.0,yes,yes,no,300234061361220,IceBall,USIABP,NPEO,North
2014-04-12T10:59:31Z,2014,11,0,102.458,102.375,89.0384,12.248,997.4,-27.0,-999.0,yes,yes,no,300234061361220,IceBall,USIABP,NPEO,North
2014-04-12T12:00:00Z,2014,12,0,102.5,102.5,89.0262,12.4874,997.2,-27.2,-999.0,yes,yes,no,300234061361220,IceBall,USIABP,NPEO,North
2014-04-12T13:00:28Z,2014,13,0,102.542,102.5,89.0262,12.4874,996.7,-27.1,-999.0,yes,yes,no,300234061361220,IceBall,USIABP,NPEO,North
2014-04-12T13:59:31Z,2014,14,0,102.583,102.5,89.0262,12.4874,996.2,-27.4,-999.0,yes,yes,no,300234061361220,IceBall,USIABP,NPEO,North
2014-04-12T15:00:00Z,2014,15,0,102.625,102.625,89.0128,12.7028,995.7,-27.3,-999.0,yes,yes,no,300234061361220,IceBall,USIABP,NPEO,North
2014-04-12T16:00:28Z,2014,16,0,102.667,102.625,89.0128,12.7028,995.1,-27.1,-999.0,yes,yes,no,300234061361220,IceBall,USIABP,NPEO,North
2014-04-12T16:59:31Z,2014,17,0,102.708,102.625,89.0128,12.7028,994.5,-26.3,-999.0,yes,yes,no,300234061361220,IceBall,USIABP,NPEO,North
2014-04-12T18:00:00Z,2014,18,0,102.75,102.75,88.997,13.061,993.7,-26.6,-999.0,yes,yes,no,300234061361220,IceBall,USIABP,NPEO,North
2014-04-12T19:00:28Z,2014,19,0,102.792,102.75,88.997,13.061,992.9,-26.1,-999.0,yes,yes,no,300234061361220,IceBall,USIABP,NPEO,North
2014-04-12T19:59:31Z,2014,20,0,102.833,102.75,88.997,13.061,992.2,-25.5,-999.0,yes,yes,no,300234061361220,IceBall,USIABP,NPEO,North
2014-04-12T21:00:00Z,2014,21,0,102.875,102.875,88.9798,13.6798,991.3,-25.2,-999.0,yes,yes,no,300234061361220,IceBall,USIABP,NPEO,North
2014-04-12T22:00:28Z,2014,22,0,102.917,102.875,88.9798,13.6798,990.0,-24.6,-999.0,yes,yes,no,300234061361220,IceBall,USIABP,NPEO,North
2014-04-12T22:59:31Z,2014,23,0,102.958,102.875,88.9798,13.6798,988.7,-24.0,-999.0,yes,yes,no,300234061361220,IceBall,USIABP,NPEO,North
2014-04-13T00:00:00Z,2014,0,0,103.0,103.0,88.9622,14.6794,987.2,-23.4,-999.0,yes,yes,no,300234061361220,IceBall,USIABP,NPEO,North
2014-04-13T01:00:28Z,2014,1,0,103.042,103.0,88.9622,14.6794,986.4,-23.0,-999.0,yes,yes,no,300234061361220,IceBall,USIABP,NPEO,North
2014-04-13T01:59:31Z,2014,2,0,103.083,103.0,88.9622,14.6794,985.4,-22.6,-999.0,yes,yes,no,300234061361220,IceBall,USIABP,NPEO,North
2014-04-13T03:00:00Z,2014,3,0,103.125,103.125,88.943,15.8174,984.5,-22.2,-999.0,yes,yes,no,300234061361220,IceBall,USIABP,NPEO,North
2014-04-13T04:00:28Z,2014,4,0,103.167,103.125,88.943,15.8174,983.6,-22.0,-999.0,yes,yes,no,300234061361220,IceBall,USIABP,NPEO,North
2014-04-13T04:59:31Z,2014,5,0,103.208,103.125,88.943,15.8174,982.6,-21.7,-999.0,yes,yes,no,300234061361220,IceBall,USIABP,NPEO,North
2014-04-13T06:00:00Z,2014,6,0,103.25,103.25,88.9238,16.7944,981.9,-21.4,-999.0,yes,yes,no,300234061361220,IceBall,USIABP,NPEO,North
2014-04-13T07:00:28Z,2014,7,0,103.292,103.25,88.9238,16.7944,981.1,-21.2,-999.0,yes,yes,no,300234061361220,IceBall,USIABP,NPEO,North
2014-04-13T07:59:31Z,2014,8,0,103.333,103.25,88.9238,16.7944,980.3,-20.9,-999.0,yes,yes,no,300234061361220,IceBall,USIABP,NPEO,North
2014-04-13T09:00:00Z,2014,9,0,103.375,103.375,88.9056,17.6432,979.8,-20.7,-999.0,yes,yes,no,300234061361220,IceBall,USIABP,NPEO,North
2014-04-13T10:00:28Z,2014,10,0,103.417,103.375,88.9056,17.6432,979.4,-20.5,-999.0,yes,yes,no,300234061361220,IceBall,USIABP,NPEO,North
2014-04-13T10:59:31Z,2014,11,0,103.458,103.375,88.9056,17.6432,978.9,-20.2,-999.0,yes,yes,no,300234061361220,IceBall,USIABP,NPEO,North
2014-04-13T12:00:00Z,2014,12,0,103.5,103.5,88.8892,18.4702,978.3,-20.0,-999.0,yes,yes,no,300234061361220,IceBall,USIABP,NPEO,North
2014-04-13T13:00:28Z,2014,13,0,103.542,103.5,88.8892,18.4702,977.9,-19.8,-999.0,yes,yes,no,300234061361220,IceBall,USIABP,NPEO,North
2014-04-13T13:59:31Z,2014,14,0,103.583,103.5,88.8892,18.4702,977.3,-19.7,-999.0,yes,yes,no,300234061361220,IceBall,USIABP,NPEO,North
2014-04-13T15:00:00Z,2014,15,0,103.625,103.625,88.8736,19.2876,976.6,-19.5,-999.0,yes,yes,no,300234061361220,IceBall,USIABP,NPEO,North
2014-04-13T16:00:28Z,2014,16,0,103.667,103.625,88.8736,19.2876,976.0,-19.3,-999.0,yes,yes,no,300234061361220,IceBall,USIABP,NPEO,North
2014-04-13T16:59:31Z,2014,17,0,103.708,103.625,88.8736,19.2876,975.6,-19.2,-999.0,yes,yes,no,300234061361220,IceBall,USIABP,NPEO,North
2014-04-13T18:00:00Z,2014,18,0,103.75,103.75,88.8576,19.9144,975.1,-19.0,-999.0,yes,yes,no,300234061361220,IceBall,USIABP,NPEO,North
2014-04-13T19:00:28Z,2014,19,0,103.792,103.75,88.8576,19.9144,975.1,-18.8,-999.0,yes,yes,no,300234061361220,IceBall,USIABP,NPEO,North
2014-04-13T19:59:31Z,2014,20,0,103.833,103.75,88.8576,19.9144,975.5,-18.7,-999.0,yes,yes,no,300234061361220,IceBall,USIABP,NPEO,North
2014-04-13T21:00:00Z,2014,21,0,103.875,103.875,88.84,19.9872,975.7,-18.5,-999.0,yes,yes,no,300234061361220,IceBall,USIABP,NPEO,North
2014-04-13T22:00:28Z,2014,22,0,103.917,103.875,88.84,19.9872,976.1,-18.4,-999.0,yes,yes,no,300234061361220,IceBall,USIABP,NPEO,North
2014-04-13T22:59:31Z,2014,23,0,103.958,103.875,88.84,19.9872,976.4,-18.2,-999.0,yes,yes,no,300234061361220,IceBall,USIABP,NPEO,North
2014-04-14T00:00:00Z,2014,0,0,104.0,104.0,88.8222,19.7694,976.8,-18.0,-999.0,yes,yes,no,300234061361220,IceBall,USIABP,NPEO,North
2014-04-14T01:00:28Z,2014,1,0,104.042,104.0,88.8222,19.7694,977.1,-17.9,-999.0,yes,yes,no,300234061361220,IceBall,USIABP,NPEO,North
2014-04-14T01:59:31Z,2014,2,0,104.083,104.0,88.8222,19.7694,977.7,-17.8,-999.0,yes,yes,no,300234061361220,IceBall,USIABP,NPEO,North
2014-04-14T03:00:00Z,2014,3,0,104.125,104.125,88.8024,19.563,978.3,-17.6,-999.0,yes,yes,no,300234061361220,IceBall,USIABP,NPEO,North
2014-04-14T04:00:28Z,2014,4,0,104.167,104.125,88.8024,19.563,979.0,-17.5,-999.0,yes,yes,no,300234061361220,IceBall,USIABP,NPEO,North
2014-04-14T04:59:31Z,2014,5,0,104.208,104.125,88.8024,19.563,979.4,-17.4,-999.0,yes,yes,no,300234061361220,IceBall,USIABP,NPEO,North
2014-04-14T06:00:00Z,2014,6,0,104.25,104.25,88.7814,19.2902,980.0,-17.3,-999.0,yes,yes,no,300234061361220,IceBall,USIABP,NPEO,North
2014-04-14T07:00:28Z,2014,7,0,104.292,104.25,88.7814,19.2902,980.7,-17.2,-999.0,yes,yes,no,300234061361220,IceBall,USIABP,NPEO,North
2014-04-14T07:59:31Z,2014,8,0,104.333,104.25,88.7814,19.2902,981.0,-17.2,-999.0,yes,yes,no,300234061361220,IceBall,USIABP,NPEO,North
2014-04-14T09:00:00Z,2014,9,0,104.375,104.375,88.7612,18.9458,981.5,-17.1,-999.0,yes,yes,no,300234061361220,IceBall,USIABP,NPEO,North
2014-04-14T10:00:28Z,2014,10,0,104.417,104.375,88.7612,18.9458,981.9,-17.1,-999.0,yes,yes,no,300234061361220,IceBall,USIABP,NPEO,North
2014-04-14T10:59:31Z,2014,11,0,104.458,104.375,88.7612,18.9458,982.2,-17.0,-999.0,yes,yes,no,300234061361220,IceBall,USIABP,NPEO,North
2014-04-14T12:00:00Z,2014,12,0,104.5,104.5,88.7442,18.7994,982.7,-17.0,-999.0,yes,yes,no,300234061361220,IceBall,USIABP,NPEO,North
2014-04-14T13:00:28Z,2014,13,0,104.542,104.5,88.7442,18.7994,983.0,-16.9,-999.0,yes,yes,no,300234061361220,IceBall,USIABP,NPEO,North
2014-04-14T13:59:31Z,2014,14,0,104.583,104.5,88.7442,18.7994,983.1,-22.3,-999.0,yes,yes,no,300234061361220,IceBall,USIABP,NPEO,North
2014-04-14T15:00:00Z,2014,15,0,104.625,104.625,88.7296,18.8342,983.0,-21.8,-999.0,yes,yes,no,300234061361220,IceBall,USIABP,NPEO,North
2014-04-14T16:00:28Z,2014,16,0,104.667,104.625,88.7296,18.8342,983.1,-22.0,-999.0,yes,yes,no,300234061361220,IceBall,USIABP,NPEO,North
2014-04-14T16:59:31Z,2014,17,0,104.708,104.625,88.7296,18.8342,983.3,-21.8,-999.0,yes,yes,no,300234061361220,IceBall,USIABP,NPEO,North
2014-04-14T18:00:00Z,2014,18,0,104.75,104.75,88.7192,18.8134,983.4,-21.5,-999.0,yes,yes,no,300234061361220,IceBall,USIABP,NPEO,North
2014-04-14T19:00:28Z,2014,19,0,104.792,104.75,88.7192,18.8134,983.5,-19.9,-999.0,yes,yes,no,300234061361220,IceBall,USIABP,NPEO,North
2014-04-14T19:59:31Z,2014,20,0,104.833,104.75,88.7192,18.8134,983.7,-19.8,-999.0,yes,yes,no,300234061361220,IceBall,USIABP,NPEO,North
2014-04-14T21:00:00Z,2014,21,0,104.875,104.875,88.713,18.7676,984.0,-19.2,-999.0,yes,yes,no,300234061361220,IceBall,USIABP,NPEO,North
2014-04-14T22:00:28Z,2014,22,0,104.917,104.875,88.713,18.7676,984.3,-19.4,-999.0,yes,yes,no,300234061361220,IceBall,USIABP,NPEO,North
2014-04-14T22:59:31Z,2014,23,0,104.958,104.875,88.713,18.7676,984.5,-18.2,-999.0,yes,yes,no,300234061361220,IceBall,USIABP,NPEO,North
2014-04-15T00:00:00Z,2014,0,0,105.0,105.0,88.7082,18.75,984.7,-19.1,-999.0,yes,yes,no,300234061361220,IceBall,USIABP,NPEO,North
2014-04-15T01:00:28Z,2014,1,0,105.042,105.0,88.7082,18.75,985.4,-20.1,-999.0,yes,yes,no,300234061361220,IceBall,USIABP,NPEO,North
2014-04-15T01:59:31Z,2014,2,0,105.083,105.0,88.7082,18.75,986.0,-21.2,-999.0,yes,yes,no,300234061361220,IceBall,USIABP,NPEO,North
2014-04-15T03:00:00Z,2014,3,0,105.125,105.125,88.7028,18.6356,986.6,-23.0,-999.0,yes,yes,no,300234061361220,IceBall,USIABP,NPEO,North
2014-04-15T04:00:28Z,2014,4,0,105.167,105.125,88.7028,18.6356,987.3,-22.2,-999.0,yes,yes,no,300234061361220,IceBall,USIABP,NPEO,North
2014-04-15T04:59:31Z,2014,5,0,105.208,105.125,88.7028,18.6356,987.7,-21.0,-999.0,yes,yes,no,300234061361220,IceBall,USIABP,NPEO,North
2014-04-15T06:00:00Z,2014,6,0,105.25,105.25,88.6982,18.2656,988.4,-20.8,-999.0,yes,yes,no,300234061361220,IceBall,USIABP,NPEO,North
2014-04-15T07:00:28Z,2014,7,0,105.292,105.25,88.6982,18.2656,988.9,-20.8,-999.0,yes,yes,no,300234061361220,IceBall,USIABP,NPEO,North
2014-04-15T07:59:31Z,2014,8,0,105.333,105.25,88.6982,18.2656,989.7,-21.0,-999.0,yes,yes,no,300234061361220,IceBall,USIABP,NPEO,North
2014-04-15T09:00:00Z,2014,9,0,105.375,105.375,88.6942,17.7842,990.6,-21.2,-999.0,yes,yes,no,300234061361220,IceBall,USIABP,NPEO,North